This is the latest recevied weather packets stored in our database for station/object W4MLN-3. If no packets are shown the sender has not sent any weather packets the latest 10 day(s).
| Time | Temp. | Humidity | Pressure | Rain* | Wind** | Luminosity | Snow |
|---|---|---|---|---|---|---|---|
| 1788276945 | 27.78° C | 61% | 1024.5 hPa | 0 mm | - | - | - |
| 1788276624 | 27.78° C | 62% | 1024.5 hPa | 0 mm | - | - | - |
| 1788276303 | 27.78° C | 64% | 1024.5 hPa | 0 mm | - | - | - |
| 1788276024 | 27.78° C | 65% | 1024.5 hPa | 0 mm | - | - | - |
| 1788275703 | 27.78° C | 62% | 1024.5 hPa | 0 mm | - | - | - |
| 1788275403 | 27.78° C | 64% | 1024.5 hPa | 0 mm | - | - | - |
| 1788275126 | 27.22° C | 65% | 1024.5 hPa | 0 mm | - | - | - |
| 1788274803 | 27.22° C | 65% | 1024.6 hPa | 0 mm | - | - | - |
| 1788274503 | 26.67° C | 67% | 1024.5 hPa | 0 mm | - | - | - |
| 1788274203 | 26.67° C | 68% | 1024.7 hPa | 0 mm | - | - | - |
| 1788273924 | 26.11° C | 69% | 1024.7 hPa | 0 mm | - | - | - |
| 1788273624 | 25.56° C | 70% | 1024.7 hPa | 0 mm | - | - | - |
| 1788273303 | 25.56° C | 72% | 1024.7 hPa | 0 mm | - | - | - |
| 1788273003 | 25° C | 74% | 1024.7 hPa | 0 mm | - | - | - |
| 1788272703 | 25° C | 73% | 1024.6 hPa | 0.25 mm | - | - | - |
| 1788272445 | 25° C | 72% | 1024.7 hPa | 0.25 mm | - | - | - |
| 1788272124 | 25° C | 75% | 1024.5 hPa | 0.25 mm | - | - | - |
| 1788271803 | 25° C | 74% | 1024.5 hPa | 0.25 mm | - | - | - |
| 1788271524 | 24.44° C | 76% | 1024.5 hPa | 0.25 mm | - | - | - |
| 1788271203 | 24.44° C | 79% | 1024.4 hPa | 0.25 mm | - | - | - |
| 1788270903 | 23.89° C | 82% | 1024.4 hPa | 0.25 mm | - | - | - |
| 1788270603 | 23.33° C | 83% | 1024.4 hPa | 0.25 mm | - | - | - |
| 1788270303 | 22.78° C | 86% | 1024.5 hPa | 0.25 mm | - | - | - |
| 1788270003 | 22.22° C | 85% | 1024.4 hPa | 0.25 mm | - | - | - |
| 1788269724 | 21.67° C | 88% | 1024.4 hPa | 0.25 mm | - | - | - |
* Rain latest hour (hover to see other rain measurements)
** Current wind speed in m/s (hover to see current wind gust speed)